Location: Unspecified
(49.2170°N, 0.0000°E)
Time: 14:10:21
(UTC+00:00)

Vanguard 3 - Pass Details

Date: 21 January 2021
Orbit: 508 x 3261 km, 33.3° (Epoch: 28 February)

Event Time Altitude Azimuth Distance (km) Brightness Sun altitude
Rises 05:37:21 0° 238° (WSW) 4,171 - -20.4°
Reaches altitude 10° 05:40:00 10° 229° (SW) 3,516 - -19.9°
Exits shadow 05:40:04 10° 228° (SW) 3,502 10.0 -19.9°
Maximum altitude 05:48:25 36° 167° (SSE) 2,872 10.1 -18.6°
Drops below altitude 10° 06:01:43 10° 109° (ESE) 5,574 12.7 -16.4°
Sets 06:07:16 0° 103° (ESE) 6,905 13.8 -15.5°
